CW3742 Weather Reports


Display with metric or nautical units.
time (UTC)temp
F
wind
direction
speed
MPH
gust
MPH
rain 1hr
in
rain 24hr
in
rain mn
in
humidity
%
barometer
mb
20260506083017 45 0 4.0 7.0 0.00 0.01 0.00 66 993.7
20260506073017 46 0 3.0 6.0 0.00 0.01 0.00 65 993.6
20260506043018 49 0 6.0 18.0 0.00 0.01 0.00 66 992.0
20260506040017 50 0 4.0 10.0 0.00 0.01 0.00 66 992.0
20260506033017 51 0 8.0 11.0 0.00 0.01 0.00 65 992.0
20260506030017 50 0 8.0 10.0 0.00 0.01 0.00 65 992.0
20260506023017 51 0 6.0 9.0 0.00 0.01 0.00 63 991.7
20260506020038 51 0 6.0 8.0 0.00 0.01 0.00 61 991.3
20260506013038 53 0 6.0 8.0 0.00 0.01 0.00 59 990.7
20260506010022 54 0 5.0 8.0 0.00 0.01 0.00 57 990.6
20260506003017 55 0 4.0 8.0 0.00 0.01 0.00 51 990.6
20260506000017 55 0 5.0 10.0 0.00 0.11 0.00 49 990.5
20260505233038 55 0 5.0 13.0 0.00 0.11 0.00 49 990.8
20260505230018 55 0 6.0 14.0 0.00 0.11 0.00 48 990.5
20260505223018 55 0 10.0 17.0 0.00 0.11 0.00 49 990.6
20260505220038 55 0 9.0 18.0 0.00 0.11 0.00 48 991.0
20260505213018 55 0 11.0 21.0 0.00 0.11 0.00 49 991.1
20260505210022 56 0 11.0 20.0 0.00 0.11 0.00 48 991.3
20260505193018 55 0 7.0 16.0 0.00 0.11 0.01 47 1010.0
20260505190016 55 0 5.0 14.0 0.00 0.11 0.01 51 1010.2
20260505183016 53 0 7.0 15.0 0.00 0.11 0.01 55 1010.2
20260505180016 53 0 6.0 13.0 0.00 0.11 0.01 56 1010.3
20260505173016 53 0 4.0 10.0 0.00 0.11 0.01 57 1010.6
20260505170037 52 0 5.0 12.0 0.00 0.11 0.01 61 1010.3
20260505163016 51 0 6.0 13.0 0.00 0.11 0.01 59 1010.3
20260505153016 51 0 4.0 10.0 0.00 0.11 0.01 57 1009.8
20260505123017 46 0.0 3.0 0.00 0.11 0.01 80 1009.7
20260505120016 45 90 1.0 3.0 0.01 0.11 0.01 75 1009.8
20260505113036 46 0 2.0 6.0 0.01 0.11 0.01 78 1010.0
20260505100016 48 0 3.0 8.0 0.00 0.10 0.00 70 1008.6
20260505093016 49 0 3.0 7.0 0.00 0.10 0.00 73 1007.9
20260505090016 50 0 5.0 11.0 0.00 0.10 0.00 66 1006.9